星链-30164 (STARLINK-30164 )

导读

STARLINK-30164是美国太空探索技术公司(SpaceX)星链(Starlink)星座的一颗卫星,于2023年8月7日发射升空,运行于近地轨道,属于低轨卫星互联网星座组网卫星。 作为星链星座的组成部分,它主要为全球,尤其是传统网络基础设施覆盖不足的偏远地区,提供高速低延迟宽带互联网服务,助力缩小数字鸿沟,同时星链星座也可支持应急通信等场景应用。

Basic Information
目录编号:
57500
目录名称:
STARLINK-30164
国际标识:
2023-113F
轨道中心:
EARTH
卫星名称:
星链-30164
卫星全名:
星链-30164 (STARLINK-30164 )
卫星状态:
在轨 (已飞行1043 天)
发射日期:
2023-08-07 UTC
国别 :
美国 (US)
星等 :
--
Orbit Information
数据来源 国际轨道数据 AOE轨道数据
星历时间 2026-06-15T02:40:38+0800
12小时前
查看轨道信息
2026-06-15T05:00:00+0800
10小时前
查看轨道信息
半长轴 6861.206km 6861.2km
偏心率 0.0001251 0.0001498
轨道倾角 43.001° 43.001°
近地点辐角 258.948° 235.122°
升交点赤经 187.762° 187.216°
平近点角 101.123° 297.796°
近地点 482.21km 482.035km
远地点 483.928km 484.091km
周期 94.267分钟 94.267分钟
每日圈数 15.275736 15.275756
Detailed Information
固有亮度:
5
最大亮度:
0.3
卫星平台:
Starlink v2.0 mini
覆盖范围:
全球
运营商:
太空探索技术公司
运营商所在国:
美国
制造商(研发单位):
太空探索技术公司
制造商所在国:
美国
使用方式:
暂无
Satellite Introduction
星链(Starlink)计划是由太空探索技术公司(SpaceX)提出的一个巨型低轨卫星互联网星座项目,计划在2019年至2024年间在太空搭建由约1.2万颗卫星组成的“星链”网络,其中1584颗将部署在地球上空550千米处的近地轨道,并从2020年开始工作。该卫星仍在工作。
2D Orbit Map
3D Orbit Map
Orbit Altitude Analysis Chart
Orbit Inclination Analysis Chart
Orbit Comprehensive Analysis Chart
View Comprehensive Chart